13:15
Airports
History
Links
Donate
Help keep this website running!
PayPal
Bitcoin
This page is community maintained. The information is intended for PC simulator navigation or reference.
Always use approved charts for navigation.
U86
Camas CountyUpdated 28-Jul-2013
Camas County (U86)
Fairfield, Idaho, United States (83327)
4
Lat/Lng:43° 20' 30.7" N / 114° 47' 53.8" W
43.341861 / -114.798278
Elevation:5058'ft / 1542mMSL
Declination:E017°
ID / ICAO:U86
FAA:U86
Runways:1
Longest:07-25
Dirt 901m / 2,957ft
(Edited 2013-07-28) [ Sign in to Edit ]
Nearby Weather12:53 GMT 2017-10-17
Nearby weather at KSUN, Friedman Memorial located 27.6 nautical miles from U86
Altimeter: 30.31
Visibility: 10.0 statute miles
Wind: 8 knots (from 300°)
Temp: 1°c / 34°f
Humidity: 64.1%

METAR: KSUN 171253Z 30008KT 10SM SKC 01/M05 A3031

(Powered by phpweather)
Nearby VORs <50NM
Nearby NDBs
Runway 07 / 25
Dimensions:901.2 x 12.2m 2957' x 40'ft
Surface:Dirt
Runway 07 [A]Runway 25 [B]
Heading:069°MH  086°TH249°MH   266°TH
Lat:
Lng:
43° 20' 13.88"N
114° 48' 8.22"W
43° 20' 15.4"N
114° 47' 28.22"W
User Notes and Comments
43° 20' 30.7" N / 114° 47' 53.8" W
Distance To
Airport ID:
Nearby Airports
4 Tracy Ranch 14.7 NM
U95 WSW 255°
4 Magic Reservoir 20.6 NM
U93 E 101°
(R) Sluder Airstrip 26.7 NM
ID16 E 80°
4 Pine 27.1 NM
1U9 WNW 288°
(C) Friedman Memorial 27.6 NM
KSUN ( WX ) ENE 66°
(U) Gooding Muni 29.4 NM
KGNG S 176°
4 Atlanta 36.7 NM
55H NNW 332°
VFR Chart
Flight Planning at SkyVector.com